ATLAS 5 CENTAUR DEB, 46668

Orbit data source: Space-Track

ATLAS 5 CENTAUR DEB, 46668 is space debris in HEO originally from a launch on Wed, 17 Oct 2018 UTC launched from the Air Force Eastern Test Range (AFETR). Debris objects in space refer to the collection of defunct objects orbiting the Earth. Examples of debris include non-operational satellites, rocket bodies, and fragments generated from explosions, collisions, or faulty payload assembly.

Loading next visibility...
Identifier
46668, 2018-079CW
Orbit
HEO
Country
Flag of USUS
Related business
Flag of USUnited Launch Alliance/Lockheed Martin (US)
Manufacturer
ULA Decatur
Mission
Spacecraft
Bus & Motor
Unknown
Mass
Unknown
Launch date (UTC)
2018-10-17 (8 years ago)
Launch vehicle
Unknown
Launch site
Air Force Eastern Test Range (AFETR)
Object type
Payload
Rocket body
Debris
Shape & HBR
Unknown shape, 1.1 m
Radar Cross Section
RCS unknown

Expand to show TLE details & history
Last TLE update: 1 day ago

TLE from 1 day ago
0 ATLAS 5 CENTAUR DEB
1 46668U 18079CW  26129.53377808 -.00000099  00000-0  00000+0 0  9994
2 46668  13.2138  36.7072 4664691 315.0453  15.5736  1.83713687 37463
Epoch: 2026-05-09T12:48Z
TLE epoch observation values (Epoch: 2026-05-09T12:48:38.426Z)
Latitude
0.00001°
Longitude
-22.84581°
Altitude
10,187.515 km
Speed
5.828 km/s
True Right ascension
02h 26m 39s
True Declination
0° 00' 00"
Sunlit
Object was in daylight at epoch
Visualization orbit readout
Latitude
Unknown
Longitude
Unknown
Altitude
Unknown
Speed
Unknown
Apparent Right ascension
Unknown
Apparent Declination
Unknown
Sunlit
N/A
Visualization observer readout
Local Sidereal Time
03:28:15
Azimuth
Unknown
Elevation
Unknown
Doppler factor
Unknown
Orbital elements
Apogee altitude
34,921.491 km
Perigee altitude
8,647.497 km
Semi-major axis
28,162.631 km
Eccentricity
0.46647
Inclination
13.2138°
RAAN
36.7072°
Arg. of periapsis
315.0453°
True anomaly
45.22551°
Mean anomaly
15.5736°
Eccentric anomaly
28.20565°
Mean motion
0.45923 °/min
Orbital period
783.92 mins
BSTAR
0
Loading maneuver chart data...
Computing Atmospheric mass density...

Documentation

Showing up to 5 results
|